User: anonymous   Login
Location: Cheching
(60.0667°N, 164.2167°W)
Time: 11:17:06
(UTC+00:00)
Language:

SO-50 - Orbit

View from above orbital plane
View from above orbital plane
View from above satellite
View from above satellite

Ground track
Ground track

The orbit data is extracted from the following two-line orbital elements,

1 27607U 02058C   21022.80566431 -.00000020  00000-0  17449-4 0  9999
2 27607  64.5557  63.7043 0029375  85.6657 274.7801 14.75704327973088
Epoch (UTC): 22 January 2021 19:20:09
Eccentricity: 0.0029375
inclination: 64.5557°
perigee height: 622 km
apogee height: 663 km
right ascension of ascending node: 63.7043°
argument of perigee: 85.6657°
revolutions per day: 14.75704327
mean anomaly at epoch: 274.7801°
orbit number at epoch: 97308

The dashed part of the orbit path shows where the satellite is in the earth's shadow,  

DLR